VIR8Y KLAX-EGLL

Flight info

Callsign VIR8Y
Flight time N/A
Altitude 35000
Route ORCKA5 LAS DCT BCE DCT MBW DCT DPR DCT GABOV DCT KEMSA/N0493F370 DCT JELCO/M085F370 DCT LIBOR DCT 63N050W 63N040W/M084F390 62N030W 60N020W DCT GOMUP/N0482F390 DCT GINGA DCT KELLY L10 WAL UY53 NUGRA NUGRA2H
Aircraft A35K/H-SDE2E3GHIJ3J4J5LM1ORWXY/LB1D1

Departure

Time N/A
Airport Los Angeles International Airport (KLAX)

Arrival

Time 2026-05-05 11:16
Airport London Heathrow Airport (EGLL)
Time Latitude Longitude Altitude Speed Heading
2026-05-05 10:46 53.22069 -2.75092 37038 ft 496 kts 128°
2026-05-05 10:46 53.17929 -2.65910 37041 ft 493 kts 128°
2026-05-05 10:47 53.13796 -2.56790 37042 ft 488 kts 128°
2026-05-05 10:47 53.09948 -2.47616 37043 ft 484 kts 124°
2026-05-05 10:48 53.06214 -2.38281 37037 ft 483 kts 124°
2026-05-05 10:48 53.02496 -2.29011 36717 ft 482 kts 124°
2026-05-05 10:48 53.00634 -2.24368 36225 ft 482 kts 124°
2026-05-05 10:49 52.98789 -2.19787 35705 ft 484 kts 124°
2026-05-05 10:49 52.96894 -2.15176 35207 ft 482 kts 124°
2026-05-05 10:49 52.94990 -2.10640 34724 ft 475 kts 124°
2026-05-05 10:49 52.93095 -2.06172 34243 ft 469 kts 124°
2026-05-05 10:50 52.91212 -2.01800 33723 ft 463 kts 124°
2026-05-05 10:50 52.89349 -1.97488 33173 ft 457 kts 124°
2026-05-05 10:50 52.87508 -1.93231 32640 ft 452 kts 125°
2026-05-05 10:50 52.85607 -1.89210 32097 ft 447 kts 131°
2026-05-05 10:51 52.83403 -1.85620 31598 ft 443 kts 139°
2026-05-05 10:51 52.80902 -1.82651 31074 ft 440 kts 149°
2026-05-05 10:51 52.78153 -1.80453 30544 ft 439 kts 158°
2026-05-05 10:51 52.75301 -1.78674 29902 ft 437 kts 160°
2026-05-05 10:52 52.72446 -1.76962 29174 ft 435 kts 161°
2026-05-05 10:52 52.69607 -1.75261 28490 ft 433 kts 161°
2026-05-05 10:52 52.66773 -1.73560 27807 ft 431 kts 161°
2026-05-05 10:52 52.63964 -1.71872 27136 ft 429 kts 161°
2026-05-05 10:53 52.61164 -1.70188 26494 ft 426 kts 161°
2026-05-05 10:53 52.58421 -1.68539 25976 ft 421 kts 161°
2026-05-05 10:53 52.55685 -1.66896 25477 ft 416 kts 161°
2026-05-05 10:53 52.52972 -1.65268 24984 ft 411 kts 161°
2026-05-05 10:54 52.50296 -1.63665 24492 ft 407 kts 161°
2026-05-05 10:54 52.47656 -1.62085 24010 ft 402 kts 161°
2026-05-05 10:54 52.45040 -1.60522 23533 ft 397 kts 162°
2026-05-05 10:54 52.42457 -1.58980 22981 ft 393 kts 162°
2026-05-05 10:55 52.39933 -1.57475 22444 ft 388 kts 162°
2026-05-05 10:55 52.37402 -1.55968 21969 ft 383 kts 161°
2026-05-05 10:55 52.34909 -1.54486 21570 ft 381 kts 161°
2026-05-05 10:55 52.32423 -1.53009 21161 ft 380 kts 162°
2026-05-05 10:56 52.29943 -1.51538 20764 ft 378 kts 162°
2026-05-05 10:56 52.27472 -1.50075 20388 ft 376 kts 161°
2026-05-05 10:56 52.25016 -1.48622 20010 ft 374 kts 161°
2026-05-05 10:56 52.22618 -1.47120 19627 ft 372 kts 157°
2026-05-05 10:57 52.20417 -1.44914 19267 ft 371 kts 143°
2026-05-05 10:57 52.18431 -1.42218 18910 ft 369 kts 140°
2026-05-05 10:57 52.16498 -1.39486 18557 ft 368 kts 140°
2026-05-05 10:57 52.14561 -1.36754 18181 ft 367 kts 140°
2026-05-05 10:58 52.12650 -1.34074 17776 ft 365 kts 140°
2026-05-05 10:58 52.10725 -1.31383 17375 ft 364 kts 141°
2026-05-05 10:58 52.08808 -1.28712 16979 ft 362 kts 141°
2026-05-05 10:58 52.06896 -1.26052 16584 ft 361 kts 141°
2026-05-05 10:59 52.04991 -1.23407 16198 ft 360 kts 141°
2026-05-05 10:59 52.03081 -1.20762 15814 ft 358 kts 140°
2026-05-05 10:59 52.01189 -1.18142 15427 ft 357 kts 140°
2026-05-05 10:59 51.99299 -1.15529 15086 ft 356 kts 140°
2026-05-05 11:00 51.97438 -1.12959 14952 ft 357 kts 140°
2026-05-05 11:00 51.95551 -1.10356 14715 ft 352 kts 140°
2026-05-05 11:00 51.93715 -1.07818 14472 ft 341 kts 140°
2026-05-05 11:00 51.91929 -1.05359 14163 ft 333 kts 139°
2026-05-05 11:01 51.90181 -1.02957 13800 ft 326 kts 139°
2026-05-05 11:01 51.88487 -1.00630 13392 ft 313 kts 139°
2026-05-05 11:01 51.86854 -0.98389 13049 ft 298 kts 139°
2026-05-05 11:01 51.85408 -0.96145 12979 ft 280 kts 127°
2026-05-05 11:02 51.84419 -0.93501 12979 ft 272 kts 116°
2026-05-05 11:02 51.83593 -0.90801 12985 ft 270 kts 115°
2026-05-05 11:02 51.82783 -0.88104 12771 ft 265 kts 115°
2026-05-05 11:02 51.81970 -0.85413 12328 ft 267 kts 115°
2026-05-05 11:03 51.81151 -0.82711 11922 ft 267 kts 115°
2026-05-05 11:03 51.80330 -0.80023 11599 ft 265 kts 115°
2026-05-05 11:03 51.79516 -0.77361 11304 ft 263 kts 115°
2026-05-05 11:03 51.78705 -0.74718 10975 ft 261 kts 115°
2026-05-05 11:04 51.77906 -0.72116 10613 ft 261 kts 115°
2026-05-05 11:04 51.77098 -0.69488 10250 ft 260 kts 115°
2026-05-05 11:04 51.76293 -0.66873 9853 ft 260 kts 115°
2026-05-05 11:04 51.75492 -0.64276 9478 ft 257 kts 115°
2026-05-05 11:05 51.74696 -0.61699 9129 ft 255 kts 116°
2026-05-05 11:05 51.73909 -0.59155 8751 ft 252 kts 115°
2026-05-05 11:05 51.73032 -0.56763 8376 ft 252 kts 128°
2026-05-05 11:05 51.71623 -0.55147 8063 ft 251 kts 161°
2026-05-05 11:06 51.69898 -0.54730 7975 ft 251 kts 176°
2026-05-05 11:06 51.68143 -0.54646 7966 ft 252 kts 179°
2026-05-05 11:06 51.66430 -0.55197 7966 ft 253 kts 206°
2026-05-05 11:06 51.65082 -0.56962 7974 ft 250 kts 233°
2026-05-05 11:07 51.64127 -0.59274 7973 ft 251 kts 240°
2026-05-05 11:07 51.63239 -0.61714 7972 ft 252 kts 240°
2026-05-05 11:07 51.62360 -0.64161 7971 ft 253 kts 240°
2026-05-05 11:07 51.61486 -0.66595 7750 ft 249 kts 240°
2026-05-05 11:08 51.60912 -0.68199 7502 ft 249 kts 240°
2026-05-05 11:08 51.60048 -0.70624 7112 ft 250 kts 240°
2026-05-05 11:08 51.58914 -0.73829 6648 ft 248 kts 240°
2026-05-05 11:08 51.58337 -0.75466 6385 ft 249 kts 240°
2026-05-05 11:09 51.57485 -0.77885 6048 ft 248 kts 240°
2026-05-05 11:09 51.56626 -0.80313 5585 ft 251 kts 240°
2026-05-05 11:09 51.55761 -0.82754 5263 ft 249 kts 240°
2026-05-05 11:09 51.54797 -0.85004 4876 ft 248 kts 223°
2026-05-05 11:10 51.53338 -0.86307 4648 ft 237 kts 191°
2026-05-05 11:10 51.51761 -0.86237 4446 ft 222 kts 159°
2026-05-05 11:10 51.50535 -0.84928 4285 ft 207 kts 128°
2026-05-05 11:10 51.49695 -0.83168 4180 ft 193 kts 122°
2026-05-05 11:11 51.48951 -0.81402 4020 ft 189 kts 121°
2026-05-05 11:11 51.48214 -0.79641 3992 ft 190 kts 120°
2026-05-05 11:11 51.47724 -0.77755 3838 ft 183 kts 97°
2026-05-05 11:11 51.47659 -0.75744 3547 ft 180 kts 84°
2026-05-05 11:12 51.47670 -0.73731 3248 ft 181 kts 86°
2026-05-05 11:12 51.47669 -0.71711 2975 ft 182 kts 86°
2026-05-05 11:12 51.47673 -0.69680 2727 ft 182 kts 86°
2026-05-05 11:12 51.47681 -0.67660 2473 ft 181 kts 86°
2026-05-05 11:13 51.47687 -0.65629 2234 ft 182 kts 85°
2026-05-05 11:13 51.47694 -0.63613 1983 ft 178 kts 86°
2026-05-05 11:13 51.47699 -0.61706 1739 ft 167 kts 86°
2026-05-05 11:13 51.47704 -0.59923 1499 ft 153 kts 84°
2026-05-05 11:14 51.47710 -0.58291 1316 ft 141 kts 83°
2026-05-05 11:14 51.47718 -0.56731 1124 ft 140 kts 84°
2026-05-05 11:14 51.47724 -0.55171 939 ft 140 kts 85°
2026-05-05 11:14 51.47729 -0.53620 742 ft 139 kts 84°
2026-05-05 11:15 51.47736 -0.52052 555 ft 140 kts 86°
2026-05-05 11:15 51.47745 -0.50509 362 ft 138 kts 85°
2026-05-05 11:15 51.47751 -0.48969 180 ft 139 kts 85°
2026-05-05 11:15 51.47759 -0.47430 95 ft 132 kts 91°
2026-05-05 11:16 51.47758 -0.46328 97 ft 57 kts 89°
2026-05-05 11:16 51.47760 -0.45825 93 ft 46 kts 89°
2026-05-05 11:16 51.47748 -0.45535 92 ft 19 kts 115°
2026-05-05 11:16 51.47685 -0.45470 95 ft 7 kts 166°
2026-05-05 11:17 51.47657 -0.45465 96 ft 2 kts 175°
2026-05-05 11:17 51.47623 -0.45464 92 ft 7 kts 180°
2026-05-05 11:17 51.47562 -0.45467 93 ft 10 kts 187°
2026-05-05 11:17 51.47526 -0.45498 96 ft 4 kts 218°
2026-05-05 11:18 51.47505 -0.45552 97 ft 7 kts 251°
2026-05-05 11:18 51.47503 -0.45637 97 ft 11 kts 272°
2026-05-05 11:18 51.47515 -0.45806 94 ft 19 kts 275°
2026-05-05 11:18 51.47517 -0.46041 94 ft 23 kts 269°
2026-05-05 11:19 51.47514 -0.46274 94 ft 21 kts 268°
2026-05-05 11:19 51.47515 -0.46505 92 ft 19 kts 270°
2026-05-05 11:19 51.47511 -0.46694 96 ft 14 kts 258°
2026-05-05 11:19 51.47428 -0.46741 94 ft 16 kts 168°
2026-05-05 11:20 51.47321 -0.46726 92 ft 16 kts 179°
2026-05-05 11:20 51.47198 -0.46725 94 ft 20 kts 179°
2026-05-05 11:20 51.47088 -0.46724 94 ft 12 kts 179°
2026-05-05 11:20 51.47001 -0.46670 97 ft 14 kts 146°
2026-05-05 11:21 51.46910 -0.46571 96 ft 17 kts 146°
2026-05-05 11:21 51.46883 -0.46465 94 ft 7 kts 63°
2026-05-05 11:21 51.46898 -0.46428 97 ft 2 kts 55°
2026-05-05 11:21 51.46904 -0.46413 97 ft 1 kts 54°
2026-05-05 11:22 51.46905 -0.46412 97 ft 0 kts 54°